When you browse on this site, cookies collect data to enhance your experience and personalize the content and advertising you see.
Visit our Privacy Policy to learn more. By continuing to use the site, you agree to this use of cookies and data.
  • In Österreich
  • Länderverzeichnis
  • Für 7 Tage
  • Wassertemperatur
  • Wetterkarte
  • News
  • Widgets
  • user-avatar
    Anmelden

    Stündliche Wetter Mauritius

    Heute, 5 Juni, Freitag

    Zeit Temperatur Niederschläge Wind Luftdruck Luftfeuchtigkeit
    00:00 +19°C° 0 mm 6 m/S 728 mmHg 79%
    01:00 +19°C° 0 mm 6 m/S 728 mmHg 79%
    02:00 +19°C° 0 mm 5 m/S 728 mmHg 78%
    03:00 +19°C° 0 mm 5 m/S 727 mmHg 76%
    04:00 +19°C° 0 mm 5 m/S 727 mmHg 75%
    05:00 +19°C° 0 mm 5 m/S 727 mmHg 75%
    06:00 +17°C° 0 mm 5 m/S 727 mmHg 74%
    07:00 +17°C° 0 mm 5 m/S 727 mmHg 74%
    08:00 +20°C° 0 mm 5 m/S 728 mmHg 70%
    09:00 +21°C° 0 mm 5 m/S 728 mmHg 67%
    10:00 +22°C° 0 mm 5 m/S 729 mmHg 63%
    11:00 +22°C° 0.1 mm 5 m/S 728 mmHg 64%
    12:00 +22°C° 0.1 mm 5 m/S 728 mmHg 64%
    13:00 +22°C° 0.1 mm 5 m/S 727 mmHg 65%
    14:00 +22°C° 0.1 mm 5 m/S 727 mmHg 66%
    15:00 +21°C° 0.1 mm 5 m/S 727 mmHg 66%
    16:00 +21°C° 0.1 mm 5 m/S 726 mmHg 67%
    17:00 +21°C° 0.1 mm 5 m/S 726 mmHg 71%
    18:00 +20°C° 0.1 mm 4 m/S 726 mmHg 74%
    19:00 +19°C° 0.1 mm 4 m/S 726 mmHg 78%
    20:00 +19°C° 0 mm 4 m/S 727 mmHg 78%
    21:00 +19°C° 0 mm 3 m/S 727 mmHg 78%
    22:00 +19°C° 0 mm 3 m/S 727 mmHg 78%
    23:00 +19°C° 0 mm 3 m/S 727 mmHg 77%

    Morgen, 6 Juni, Samstag

    Zeit Temperatur Niederschläge Wind Luftdruck Luftfeuchtigkeit
    00:00 +19°C° 0 mm 3 m/S 726 mmHg 76%
    01:00 +18°C° 0 mm 3 m/S 726 mmHg 75%
    02:00 +18°C° 0 mm 3 m/S 726 mmHg 75%
    03:00 +18°C° 0 mm 2 m/S 726 mmHg 76%
    04:00 +18°C° 0 mm 2 m/S 725 mmHg 76%
    05:00 +18°C° 0 mm 3 m/S 726 mmHg 77%
    06:00 +18°C° 0 mm 3 m/S 726 mmHg 78%
    07:00 +18°C° 0 mm 3 m/S 726 mmHg 80%
    08:00 +19°C° 0 mm 3 m/S 726 mmHg 75%
    09:00 +21°C° 0 mm 4 m/S 726 mmHg 71%
    10:00 +22°C° 0 mm 4 m/S 727 mmHg 66%
    11:00 +22°C° 0 mm 4 m/S 726 mmHg 65%
    12:00 +22°C° 0 mm 4 m/S 726 mmHg 63%
    13:00 +23°C° 0 mm 4 m/S 726 mmHg 61%
    14:00 +22°C° 0.1 mm 4 m/S 726 mmHg 63%
    15:00 +22°C° 0.1 mm 4 m/S 726 mmHg 64%
    16:00 +22°C° 0.1 mm 4 m/S 725 mmHg 66%
    17:00 +21°C° 0.1 mm 5 m/S 726 mmHg 71%
    18:00 +20°C° 0.1 mm 5 m/S 726 mmHg 76%
    19:00 +20°C° 0.1 mm 6 m/S 726 mmHg 81%
    20:00 +20°C° 0.1 mm 6 m/S 726 mmHg 82%
    21:00 +20°C° 0.1 mm 7 m/S 726 mmHg 84%
    22:00 +18°C° 0.1 mm 7 m/S 726 mmHg 85%
    23:00 +20°C° 0.2 mm 7 m/S 726 mmHg 84%

    übermorgen, 7 Juni, Sonntag

    Zeit Temperatur Niederschläge Wind Luftdruck Luftfeuchtigkeit
    00:00 +20°C° 0.2 mm 7 m/S 726 mmHg 84%
    01:00 +20°C° 0.2 mm 7 m/S 725 mmHg 84%
    02:00 +20°C° 0.2 mm 8 m/S 725 mmHg 84%
    03:00 +18°C° 0.2 mm 8 m/S 725 mmHg 85%
    04:00 +18°C° 0.2 mm 8 m/S 725 mmHg 85%
    05:00 +18°C° 0.4 mm 8 m/S 725 mmHg 85%
    06:00 +18°C° 0.4 mm 8 m/S 726 mmHg 85%
    07:00 +18°C° 0.4 mm 8 m/S 726 mmHg 85%
    08:00 +19°C° 0.5 mm 9 m/S 726 mmHg 83%
    09:00 +19°C° 0.5 mm 9 m/S 726 mmHg 81%
    10:00 +19°C° 0.5 mm 9 m/S 727 mmHg 79%
    11:00 +19°C° 0.1 mm 9 m/S 726 mmHg 75%
    12:00 +21°C° 0.1 mm 9 m/S 726 mmHg 72%
    13:00 +21°C° 0.1 mm 9 m/S 726 mmHg 68%
    14:00 +19°C° 0.1 mm 9 m/S 726 mmHg 73%
    15:00 +19°C° 0.1 mm 9 m/S 726 mmHg 77%
    16:00 +18°C° 0.1 mm 9 m/S 726 mmHg 81%
    17:00 +18°C° 0.3 mm 10 m/S 726 mmHg 81%
    18:00 +18°C° 0.3 mm 10 m/S 726 mmHg 80%
    19:00 +18°C° 0.3 mm 10 m/S 727 mmHg 80%
    20:00 +18°C° 0.1 mm 9 m/S 727 mmHg 80%
    21:00 +18°C° 0.1 mm 9 m/S 727 mmHg 80%
    22:00 +18°C° 0.1 mm 9 m/S 727 mmHg 80%
    23:00 +18°C° 0.1 mm 9 m/S 727 mmHg 79%

    8 Juni, Montag

    Zeit Temperatur Niederschläge Wind Luftdruck Luftfeuchtigkeit
    00:00 +18°C° 0.1 mm 9 m/S 727 mmHg 79%
    01:00 +17°C° 0.1 mm 9 m/S 727 mmHg 79%
    02:00 +17°C° 0 mm 9 m/S 727 mmHg 78%
    03:00 +17°C° 0 mm 8 m/S 727 mmHg 78%
    04:00 +17°C° 0 mm 8 m/S 726 mmHg 78%
    05:00 +17°C° 0 mm 8 m/S 726 mmHg 78%
    06:00 +17°C° 0 mm 8 m/S 727 mmHg 78%
    07:00 +17°C° 0 mm 8 m/S 727 mmHg 78%
    08:00 +17°C° 0 mm 8 m/S 727 mmHg 75%
    09:00 +18°C° 0 mm 8 m/S 727 mmHg 73%
    10:00 +18°C° 0 mm 8 m/S 728 mmHg 70%
    11:00 +20°C° 0 mm 8 m/S 727 mmHg 68%
    12:00 +20°C° 0 mm 8 m/S 727 mmHg 66%
    13:00 +20°C° 0 mm 8 m/S 726 mmHg 65%
    14:00 +20°C° 0 mm 8 m/S 726 mmHg 65%
    15:00 +20°C° 0 mm 8 m/S 726 mmHg 65%
    16:00 +20°C° 0 mm 8 m/S 726 mmHg 65%
    17:00 +20°C° 0 mm 8 m/S 726 mmHg 68%
    18:00 +18°C° 0 mm 8 m/S 726 mmHg 71%
    19:00 +18°C° 0 mm 8 m/S 726 mmHg 73%
    20:00 +18°C° 0.1 mm 8 m/S 726 mmHg 74%
    21:00 +18°C° 0.1 mm 8 m/S 727 mmHg 75%
    22:00 +17°C° 0.1 mm 8 m/S 727 mmHg 77%
    23:00 +17°C° 0 mm 7 m/S 726 mmHg 76%

    9 Juni, Dienstag

    Zeit Temperatur Niederschläge Wind Luftdruck Luftfeuchtigkeit
    00:00 +17°C° 0 mm 7 m/S 726 mmHg 76%
    01:00 +17°C° 0 mm 6 m/S 726 mmHg 76%
    02:00 +17°C° 0 mm 6 m/S 726 mmHg 76%
    03:00 +17°C° 0 mm 6 m/S 726 mmHg 75%
    04:00 +17°C° 0 mm 5 m/S 725 mmHg 75%
    05:00 +17°C° 0 mm 6 m/S 726 mmHg 76%
    06:00 +17°C° 0 mm 6 m/S 726 mmHg 78%
    07:00 +17°C° 0 mm 6 m/S 726 mmHg 79%
    08:00 +18°C° 0.1 mm 7 m/S 726 mmHg 74%
    09:00 +20°C° 0.1 mm 7 m/S 727 mmHg 68%
    10:00 +21°C° 0.1 mm 7 m/S 727 mmHg 62%
    11:00 +21°C° 0 mm 7 m/S 727 mmHg 61%
    12:00 +22°C° 0 mm 6 m/S 726 mmHg 59%
    13:00 +22°C° 0 mm 6 m/S 726 mmHg 58%
    14:00 +22°C° 0 mm 6 m/S 726 mmHg 61%
    15:00 +21°C° 0 mm 6 m/S 725 mmHg 64%
    16:00 +21°C° 0 mm 6 m/S 725 mmHg 67%
    17:00 +20°C° 0 mm 6 m/S 725 mmHg 69%
    18:00 +20°C° 0 mm 6 m/S 726 mmHg 72%
    19:00 +19°C° 0 mm 6 m/S 726 mmHg 75%
    20:00 +19°C° 0 mm 6 m/S 726 mmHg 76%
    21:00 +19°C° 0 mm 6 m/S 726 mmHg 77%
    22:00 +19°C° 0 mm 6 m/S 726 mmHg 79%
    23:00 +19°C° 0.1 mm 6 m/S 726 mmHg 80%

    10 Juni, Mittwoch

    Zeit Temperatur Niederschläge Wind Luftdruck Luftfeuchtigkeit
    00:00 +19°C° 0.1 mm 6 m/S 726 mmHg 81%
    01:00 +19°C° 0.1 mm 6 m/S 726 mmHg 83%
    02:00 +19°C° 0.1 mm 6 m/S 726 mmHg 83%
    03:00 +19°C° 0.1 mm 6 m/S 725 mmHg 83%
    04:00 +18°C° 0.1 mm 7 m/S 725 mmHg 83%
    05:00 +18°C° 0.1 mm 7 m/S 725 mmHg 82%
    06:00 +18°C° 0.1 mm 8 m/S 726 mmHg 82%
    07:00 +18°C° 0.1 mm 8 m/S 726 mmHg 81%
    08:00 +20°C° 0 mm 8 m/S 726 mmHg 77%
    09:00 +21°C° 0 mm 8 m/S 727 mmHg 72%
    10:00 +21°C° 0 mm 8 m/S 727 mmHg 68%
    11:00 +21°C° 0 mm 8 m/S 727 mmHg 68%
    12:00 +22°C° 0 mm 8 m/S 726 mmHg 68%
    13:00 +22°C° 0 mm 8 m/S 726 mmHg 68%
    14:00 +22°C° 0 mm 8 m/S 726 mmHg 70%
    15:00 +22°C° 0 mm 7 m/S 726 mmHg 72%
    16:00 +21°C° 0 mm 7 m/S 726 mmHg 74%
    17:00 +21°C° 0.1 mm 7 m/S 726 mmHg 76%
    18:00 +21°C° 0.1 mm 7 m/S 726 mmHg 78%
    19:00 +20°C° 0.1 mm 8 m/S 726 mmHg 80%
    20:00 +20°C° 0.2 mm 8 m/S 726 mmHg 81%
    21:00 +20°C° 0.2 mm 8 m/S 727 mmHg 82%
    22:00 +20°C° 0.2 mm 8 m/S 727 mmHg 82%
    23:00 +20°C° 0.2 mm 8 m/S 727 mmHg 81%
    Mehr zeigen